Weather History for Nome, AK

Change the Weather History Date:

Monday, November 1, 2010

  Actual Average Record
Temperature  
Mean Temperature 15 °F 22 °F  
Max Temperature 21 °F 28 °F 50 °F (1928)
Min Temperature 8 °F 16 °F -6 °F (1992)
Degree Days  
Heating Degree Days 50 43  
Month to date heating degree days 50 43  
Since 1 July heating degree days 2432 2698  
Cooling Degree Days 0    
Month to date cooling degree days 0  
Year to date cooling degree days 2  
Moisture  
Dew Point 9 °F    
Average Humidity 0    
Maximum Humidity 0    
Minimum Humidity 0    
Precipitation  
Precipitation 0.00 in 0.04 in 0.74 in (1925)
Month to date precipitation 0.00 0.04  
Year to date precipitation 11.17 14.55  
Snow  
Snow 0.00 in 0.30 in 4.20 in (1950)
Month to date snowfall 0.0 0.3  
Since 1 July snowfall 7.1 5.5  
Since 1 September snowfall 7.1 5.5  
Snow Depth 4.00 in    
Sea Level Pressure  
Sea Level Pressure 29.30 in    
Wind  
Wind Speed 9 mph (North)    
Max Wind Speed 23 mph    
Max Gust Speed 26 mph    
Visibility 10 miles    
Events      
T = Trace of Precipitation, MM = Missing Value Source: NWS Daily Summary

Daily Weather History Graph

Daily Weather History Graph

Search for Another Location

Airport:

Trip Planner

Search our weather history database for the weather conditions in past years. The results will help you decide how hot, cold, wet, or windy it might be!

Date:

Astronomy

Nov. 01, 2010 Rise Set
Actual Time 10:48 AM AKDT 6:41 PM AKDT
Civil Twilight 9:53 AM AKDT 7:35 PM AKDT
Nautical Twilight 8:55 AM AKDT 8:33 PM AKDT
Astronomical Twilight 7:59 AM AKDT 9:29 PM AKDT
Moon 3:53 AM AKDT (11/1) 5:24 PM AKDT (11/1)
Length of Visible Light 9h 42m
Length of Day
7h 53m
Waning Crescent, 25% of the Moon is Illuminated
Nov 1
Waning Crescent
Nov 5
New
Nov 13
First Quarter
Nov 21
Full
Nov 28
Last Quarter

Hourly Weather History & Observations

Time (AKDT) Temp. Windchill Dew Point Humidity Pressure Visibility Wind Dir Wind Speed Gust Speed Precip Events Conditions
12:53 AM 18.0 °F 7.7 °F 10.9 °F 74% 29.26 in 10.0 mi NNW 8.1 mph - N/A   Clear
1:53 AM 14.0 °F - 8.1 °F 77% 29.26 in 10.0 mi Calm Calm - N/A   Clear
2:53 AM 14.0 °F 8.2 °F 8.1 °F 77% 29.26 in 10.0 mi NNW 3.5 mph - N/A   Clear
3:53 AM 17.1 °F 7.6 °F 9.0 °F 71% 29.26 in 10.0 mi NNW 6.9 mph - N/A   Clear
4:53 AM 10.9 °F 4.7 °F 6.1 °F 81% 29.26 in 10.0 mi West 3.5 mph - N/A   Clear
5:53 AM 12.9 °F 1.6 °F 7.0 °F 77% 29.26 in 10.0 mi NW 8.1 mph - N/A   Clear
6:53 AM 10.0 °F -0.9 °F 6.1 °F 84% 29.25 in 10.0 mi NW 6.9 mph - N/A   Clear
7:53 AM 15.1 °F 7.7 °F 9.0 °F 77% 29.25 in 10.0 mi NNE 4.6 mph - N/A   Clear
8:53 AM 12.9 °F - 7.0 °F 77% 29.27 in 10.0 mi Calm Calm - N/A   Clear
9:53 AM 14.0 °F - 8.1 °F 77% 29.28 in 10.0 mi Calm Calm - N/A   Partly Cloudy
10:53 AM 15.1 °F 5.2 °F 8.1 °F 74% 29.28 in 10.0 mi NNE 6.9 mph - N/A   Partly Cloudy
11:53 AM 15.1 °F 7.7 °F 8.1 °F 74% 29.29 in 10.0 mi North 4.6 mph - N/A   Partly Cloudy
12:53 PM 19.0 °F 10.0 °F 10.0 °F 68% 29.29 in 10.0 mi NNW 6.9 mph - N/A   Scattered Clouds
1:53 PM 19.9 °F 7.3 °F 10.9 °F 68% 29.31 in 10.0 mi North 12.7 mph 18.4 mph N/A   Scattered Clouds
2:53 PM 19.9 °F 12.1 °F 10.9 °F 68% 29.32 in 10.0 mi NNE 5.8 mph - N/A   Scattered Clouds
3:53 PM 19.9 °F 6.2 °F 12.0 °F 71% 29.31 in 10.0 mi North 15.0 mph 23.0 mph N/A   Scattered Clouds
4:53 PM 19.9 °F 5.7 °F 10.9 °F 68% 29.32 in 10.0 mi North 16.1 mph - N/A   Scattered Clouds
5:53 PM 19.0 °F 5.6 °F 10.9 °F 71% 29.33 in 10.0 mi North 13.8 mph - N/A   Scattered Clouds
6:53 PM 18.0 °F 3.1 °F 10.0 °F 71% 29.33 in 10.0 mi North 16.1 mph - N/A   Scattered Clouds
7:53 PM 17.1 °F 4.3 °F 9.0 °F 71% 29.34 in 10.0 mi North 11.5 mph - N/A   Scattered Clouds
8:53 PM 19.0 °F 2.7 °F 10.0 °F 68% 29.34 in 10.0 mi North 20.7 mph - N/A   Scattered Clouds
9:53 PM 18.0 °F 4.2 °F 10.0 °F 71% 29.36 in 10.0 mi North 13.8 mph - N/A   Scattered Clouds
10:53 PM 18.0 °F 6.1 °F 10.0 °F 71% 29.38 in 10.0 mi NNW 10.4 mph 21.9 mph N/A   Mostly Cloudy
11:53 PM 18.0 °F 6.9 °F 10.0 °F 71% 29.39 in 10.0 mi North 9.2 mph - N/A   Clear